Regional Weather Roundup
Issued by NWS

Home | Current Version | Previous Version | Graphics & Text | Print | Product List | Glossary On
Versions: 1 2 3 4 5 6 7 8 9 10 11 12 13 14 15 16 17 18 19 20 21 22 23 24 25 26 27 28 29 30 31 32 33 34 35 36 37 38 39 40 41 42 43 44 45 46 47 48 49 50
000
ASUS45 KSLC 222110
RWRUT

UTAH REGIONAL WEATHER ROUNDUP
NATIONAL WEATHER SERVICE SALT LAKE CITY UT
300 PM MDT MON MAY 22 2017

UTZ001>011-023>025-222200-

NORTHERN UTAH

CITY           SKY/WX    TMP DP  RH WIND       PRES   REMARKS
BRIGHAM CITY   PTSUNNY   70  43  37 SW8       30.21F
HILL AFB       SUNNY     68  43  40 W12G18    30.22F
LOGAN          PTSUNNY   72  47  40 CALM      30.19F
OGDEN          MOSUNNY   70  44  39 W9G16     30.21F
SALT LAKE CITY MOSUNNY   74  43  32 NW14      30.20F
TOOELE VALLEY  SUNNY     70  32  24 NW5       30.23F
WENDOVER       SUNNY     73  29  19 SE6       30.22F
HEBER CITY     MOSUNNY   72  37  28 SW8       30.22F
WEST JORDAN    SUNNY     73  48  40 NW14      30.23F

$$

UTZ011>015-024>027-222200-

CENTRAL/NORTHEAST UTAH

CITY           SKY/WX    TMP DP  RH WIND       PRES   REMARKS
PROVO AIRPORT  MOSUNNY   70  41  35 VRB7      30.22F
MOAB/CANYONLAN SUNNY     74  32  21 NW10G17   30.13F
DELTA          SUNNY     72  32  23 N6        30.22F
PRICE          MOSUNNY   73  29  19 NW13G25   30.18F
RICHFIELD      SUNNY     70  34  26 NE9       30.24F
ROOSEVELT      PTSUNNY   72  28  20 SW7       30.16F
VERNAL         PTSUNNY   68  34  28 SW10      30.15F

$$

UTZ013>016-019>022-027-222200-

SOUTHERN UTAH

CITY           SKY/WX    TMP DP  RH WIND       PRES   REMARKS
BRYCE CANYON   SUNNY     67  27  22 W12G18    30.29F
CEDAR CITY     MOSUNNY   74  32  21 N7        30.21F
MILFORD        MOSUNNY   75  30  19 N15       30.21F
ST GEORGE      PTCLDY    85  34  16 VRB3      30.05F
HANKSVILLE     SUNNY     79  28  15 W6        30.15F
KANAB          SUNNY     79  25  13 S7        30.18F
BLANDING       SUNNY     72  26  18 NW16G22   30.23F

$$

REGIONAL REPORTS     COLORADO/ARIZONA

CITY           SKY/WX    TMP DP  RH WIND       PRES   REMARKS
CRAIG, CO      CLOUDY    55  40  56 S10       30.19F
GRAND JUNCTION MOSUNNY   72  28  19 W13G18    30.13F
RIFLE, CO      MOSUNNY   71  24  17 NW18G26   30.14F
MONTROSE, CO   MOSUNNY   67  28  23 N8        30.19F
CORTEZ, CO     SUNNY     70  28  21 N17G24    30.16F
COLORADO CITY    N/A     82  21  10 N10G17    30.18F
PAGE, AZ       SUNNY     78  24  13 CALM      30.13F
GRAND CANYON   SUNNY     73  21  14 W13G21    30.24F
KINGMAN, AZ    SUNNY     93  32  11 N17       30.06F
FLAGSTAFF, AZ  MOSUNNY   72  25  17 SW15      30.25F

$$

REGIONAL REPORTS    NEVADA/IDAHO/WYOMING

CITY           SKY/WX    TMP DP  RH WIND       PRES   REMARKS
LAS VEGAS, NV  PTSUNNY   92  30  11 VRB7      30.00F
ELY, NY        SUNNY     70  21  15 VRB3      30.27F
ELKO, NV       SUNNY     74  23  15 SE6       30.24F
POCATELLO, ID  MOSUNNY   72  39  30 VRB7      30.21F
BURLEY, ID     SUNNY     74  39  28 W9        30.18F
FORT BRIDGER,  MOCLDY    65  31  27 NW17G25   30.28F
EVANSTON, WY   MOSUNNY   62  34  35 NW12      30.28F
ROCK SPRINGS,  CLOUDY    65  27  23 NW21G28   30.18F
KEMMERER, WY     N/A     61  30  31 W17G28    30.26F

$$



USA.gov is the U.S. government's official web portal to all federal, state and local government web resources and services.